P/2009 O3 ( Hill )

Japanese version
Home page
Updated on March 27, 2010

---------------------------------------------------------------------

* Profile

Discovery Date July 29, 2009
Magnitude 17.5 mag
Discoverer R. E. Hill (Catalina Sky Survey)

* Pictures

* Orbital Elements

Epoch 2009 May 9.0 TT = JDT 2454960.5
T 2009 May 18.63175 TT                                  MPC
q   2.4499433            (2000.0)            P               Q
n   0.04496270     Peri.  154.55715     +0.92815599     +0.37173940
a   7.8325125      Node   183.76543     -0.37097351     +0.92001263
e   0.6872085      Incl.   16.21455     -0.03008511     +0.12404267
P  21.92

* Magnitudes Graph

        m1 = 12.0 + 5 log d + 10.0 log r

---------------------------------------------------------------------

The orbital elements are published on M.P.E.C. 2009-S145.
The magnitudes graphs are made with Comet for Windows.

---------------------------------------------------------------------

Copyright(C) Seiichi Yoshida (comet@aerith.net). All rights reserved.